Regional Weather Roundup
Issued by NWS

Home | Current Version | Previous Version | Graphics & Text | Print | Product List | Glossary On
Versions: 1 2 3 4 5 6 7 8 9 10 11 12 13 14 15 16 17 18 19 20 21 22 23 24 25 26 27 28 29 30 31 32 33 34 35 36 37 38 39 40 41 42 43 44 45 46 47 48 49 50
000
ASUS43 KDTX 171310
RWRMI
MICHIGAN HOURLY REGIONAL WEATHER ROUNDUP
NATIONAL WEATHER SERVICE DETROIT/PONTIAC MI
800 AM EST THU JAN 17 2019

NOTE: "FAIR" INDICATES FEW OR NO CLOUDS BELOW 12,000 FEET WITH NO
SIGNIFICANT WEATHER AND/OR OBSTRUCTION TO VISIBILITY.

MIZ047>049-052>055-059>063-066>070-074>076-081>083-171400-
SOUTHEAST LOWER MICHIGAN

CITY           SKY/WX    TMP DP  RH WIND       PRES   REMARKS
ADRIAN         CLOUDY    23  19  85 SE8       30.19F WCI  14
ALMA           CLOUDY    19  14  82 CALM      30.21F
ANN ARBOR      CLOUDY    23  18  81 E9        30.20F WCI  13
BAD AXE        FAIR      10   8  89 CALM      30.24F
CARO           MOCLDY    13  11  90 CALM      30.23F
DETROIT CITY   CLOUDY    25  19  78 SE8       30.24F WCI  16
DETROIT        CLOUDY    24  16  71 E6        30.23F WCI  17
FLINT          CLOUDY    21  15  78 SE6       30.22F WCI  13
GROSSE ILE     CLOUDY    26  21  83 SE6       30.23F WCI  19
HILLSDALE      CLOUDY    24  18  78 E12       30.15S WCI  13
HOWELL         CLOUDY    23  18  80 SE8       30.19F WCI  14

CITY           SKY/WX    TMP DP  RH WIND       PRES   REMARKS
JACKSON        CLOUDY    23  19  85 E9        30.17F WCI  13
LAMBERTVILLE   CLOUDY    27  22  81 E6        30.20F WCI  20
LANSING        CLOUDY    22  17  81 SE10      30.19F WCI  11
LAPEER         FAIR      18  13  78 SE6       30.23F WCI  10
MASON          CLOUDY    23  19  84 MISG      30.18F
MONROE         CLOUDY    28  24  86 E10G16    30.21F WCI  18
MT. CLEMENS    CLOUDY    24  19  84 E10       30.23F WCI  13
PONTIAC        CLOUDY    21  16  81 SE9       30.20F WCI  11
PORT HOPE        N/A     13   8  81 CALM      30.25F
PORT HURON     FAIR      19  14  79 SE3       30.26F
TRI CITIES     CLOUDY    16  12  84 E7        30.23F WCI   6
MIDLAND        CLOUDY    16  12  84 NE3       30.22F
TROY           CLOUDY    25  18  73 E6        30.25F WCI  18
SAGINAW HB     CLOUDY    18  12  79 E3        30.23F
$$
MIZ043>046-050>051-056>058-064>065-071>073-077>080-171400-
SOUTHWEST LOWER MICHIGAN

CITY           SKY/WX    TMP DP  RH WIND       PRES   REMARKS
BATTLE CREEK   CLOUDY    25  19  78 SE8       30.15F WCI  16
BENTON HARBOR  CLOUDY    27  20  75 E9        30.13F WCI  18
BIG RAPIDS     CLOUDY    14  11  86 CALM      30.17F
COLDWATER      CLOUDY    26  22  85 SE7       30.14F WCI  18
FREMONT        CLOUDY    19  13  77 E5        30.17F WCI  12
HOLLAND        CLOUDY    24  17  74 SE7       30.16F WCI  16
GRAND RAPIDS   CLOUDY    22  16  78 E8        30.16F WCI  12
IONIA          CLOUDY    21  16  81 E7        30.17F WCI  12
KALAMAZOO      CLOUDY    25  19  78 E6        30.15F WCI  18
LUDINGTON      FAIR      12   8  84 E3        30.18F
MARSHALL       CLOUDY    25  22  88 E7        30.15F WCI  17
MOUNT PLEASANT CLOUDY    15  10  77 CALM      30.20F
SOUTH HAVEN    CLOUDY    27  20  76 SE5       30.14F WCI  22
$$
MIZ016>042-171400-
NORTHERN LOWER MICHIGAN

CITY           SKY/WX    TMP DP  RH WIND       PRES   REMARKS
ALPENA         FAIR       0  -4  83 S3        30.25F
BEAVER ISLAND  CLOUDY    12   9  87 CALM      30.20F
BELLAIRE       FAIR       4   1  86 CALM      30.23F
CADILLAC       FAIR       7   3  85 CALM      30.14F
CHARLEVOIX     FAIR      12   7  79 CALM      30.25S
FRANKFORT      FAIR      11   5  77 CALM      30.20F
GAYLORD        FAIR       2   1  96 SE6       30.16F WCI  -9
GRAYLING       FAIR      -5  -9  83 CALM      30.18F
HARBOR SPRINGS FAIR      11   6  83 NE3       30.22F
HOUGHTON LAKE  CLOUDY     7   2  80 E3        30.19F
MANISTEE       FAIR       8   5  87 E6        30.20F WCI  -2
OSCODA         FAIR       0  -4  82 CALM      30.26S
PELLSTON       CLOUDY    12   8  84 CALM      30.23F
ROGERS CITY    FAIR       8   4  81 SE3       30.26S
TRAVERSE CITY  FAIR       9   3  77 W3        30.21F
$$
MIZ007>008-015-171400-
EASTERN UPPER MICHIGAN

CITY           SKY/WX    TMP DP  RH WIND       PRES   REMARKS
KINROSS        FAIR       9   5  84 SE6       30.21F WCI  -1
MACKINAC ISLAN CLOUDY    17   9  71 S7        30.21F WCI   7
NEWBERRY       MOCLDY     6   1  81 CALM      30.19S
S. S. MARIE    FAIR      10   4  76 SE3       30.21S
MUNISING         N/A      2  -1  88 S6        30.17F WCI  -9
$$
MIZ004>006-011>014-085-171400-
CENTRAL UPPER MICHIGAN

CITY           SKY/WX    TMP DP  RH WIND       PRES   REMARKS
MANISTIQUE     CLOUDY     3  -4  73 CALM      30.19F
ESCANABA       CLOUDY    -2  -6  84 CALM      30.20F
MENOMINEE      CLOUDY    11   8  88 CALM      30.19F
SAWYER-GWINN   PTCLDY    -2  -6  84 CALM      30.12F
$$
MIZ001>003-009>011-084-171400-
WESTERN UPPER MICHIGAN

CITY           SKY/WX    TMP DP  RH WIND       PRES   REMARKS
IRON MOUNTAIN  CLOUDY    -3  -7  82 S5        30.10F WCI -13
HOUGHTON       FAIR       7  -1  70 CALM      30.09F
COPPER HARBOR    N/A     15   4  61 SW5       30.13F WCI   8
IRONWOOD       MOCLDY     3   0  87 S7        30.08F WCI  -9
$$

ABBREVIATIONS USED IN REMARKS
   TC - TEMPERATURE IN CELSIUS
  WCI - WIND CHILL INDEX
   HX - HEAT INDEX
  VSB - VISIBILITY




USA.gov is the U.S. government's official web portal to all federal, state and local government web resources and services.